Boston, MA

7:15 PM EDT on April 24, 2017 (GMT -0400)
Logan International

Weather History for KBOS - January, 2006

Change the Weather History Date:

Friday, January 20, 2006

  Actual Average Record
Temperature  
Mean Temperature 46 °F 29 °F  
Max Temperature 57 °F 35 °F 60 °F (1951)
Min Temperature 35 °F 22 °F -3 °F (1946)
Degree Days  
Heating Degree Days 19 36  
Month to date heating degree days 568 716  
Since 1 July heating degree days 2500 2710  
Cooling Degree Days 0 0  
Month to date cooling degree days 0 0  
Year to date cooling degree days 0 0  
Moisture  
Dew Point 33 °F    
Average Humidity 55    
Maximum Humidity 70    
Minimum Humidity 40    
Precipitation  
Precipitation 0.00 in 0.10 in 2.05 in (1978)
Month to date precipitation 2.98 2.19  
Year to date precipitation 2.98 2.19  
Snow  
Snow 0.00 in 0.40 in 21.00 in (1978)
Month to date snowfall 1.6 8.5  
Since 1 July snowfall 13.4 18.8  
Snow Depth 0.00 in    
Sea Level Pressure  
Sea Level Pressure 30.10 in    
Wind  
Wind Speed 14 mph (SW)    
Max Wind Speed 22 mph    
Max Gust Speed 28 mph    
Visibility 10 miles    
Events      
T = Trace of Precipitation, MM = Missing Value Source: NWS Daily Summary

Daily Weather History Graph

Daily Weather History Graph

Search for Another Location

Airport or City:

Trip Planner

Search our weather history database for the weather conditions in past years. The results will help you decide how hot, cold, wet, or windy it might be!

Date:

Astronomy

Jan. 20, 2006 Rise Set
Actual Time 7:07 AM EST 4:42 PM EST
Civil Twilight 6:37 AM EST 5:13 PM EST
Nautical Twilight 6:02 AM EST 5:47 PM EST
Astronomical Twilight 5:29 AM EST 6:21 PM EST
Moon 10:57 PM EST (1/20) 10:00 AM EST (1/20)
Length of Visible Light 10h 36m
Length of Day
9h 34m
Waning Gibbous, 68% of the Moon is Illuminated
Jan 20
Waning Gibbous
Jan 22
Last Quarter
Jan 29
New
Feb 5
First Quarter
Feb 12
Full

Hourly Weather History & Observations

Time (EST) Temp. Windchill Dew Point Humidity Pressure Visibility Wind Dir Wind Speed Gust Speed Precip Events Conditions
12:54 AM 36.0 °F 29.6 °F 27.0 °F 70% 30.20 in 10.0 mi SSW 8.1 mph - N/A   Mostly Cloudy
1:54 AM 39.9 °F 31.4 °F 28.9 °F 65% 30.18 in 10.0 mi SW 16.1 mph - N/A   Overcast
2:54 AM 41.0 °F 32.2 °F 32.0 °F 70% 30.17 in 10.0 mi SW 18.4 mph - N/A   Overcast
3:54 AM 42.1 °F 33.6 °F 32.0 °F 67% 30.15 in 10.0 mi SW 18.4 mph - N/A   Mostly Cloudy
4:54 AM 42.1 °F 33.9 °F 33.1 °F 70% 30.12 in 10.0 mi SW 17.3 mph - N/A   Mostly Cloudy
5:54 AM 42.1 °F 33.6 °F 33.1 °F 70% 30.13 in 10.0 mi SW 18.4 mph - N/A   Mostly Cloudy
6:54 AM 42.1 °F 33.6 °F 34.0 °F 73% 30.12 in 10.0 mi SW 18.4 mph - N/A   Scattered Clouds
7:54 AM 43.0 °F 34.8 °F 33.1 °F 68% 30.12 in 10.0 mi SW 18.4 mph - N/A   Partly Cloudy
8:54 AM 45.0 °F 37.4 °F 33.1 °F 63% 30.12 in 10.0 mi SW 18.4 mph - N/A   Partly Cloudy
9:54 AM 48.0 °F - 33.1 °F 56% 30.10 in 10.0 mi SW 15.0 mph - N/A   Clear
10:54 AM 50.0 °F - 33.1 °F 52% 30.08 in 10.0 mi WSW 17.3 mph - N/A   Partly Cloudy
11:54 AM 53.1 °F - 33.1 °F 47% 30.05 in 10.0 mi WSW 18.4 mph - N/A   Partly Cloudy
12:54 PM 55.9 °F - 33.1 °F 42% 30.02 in 10.0 mi WSW 12.7 mph 21.9 mph N/A   Scattered Clouds
1:54 PM 57.0 °F - 33.1 °F 40% 30.02 in 10.0 mi WSW 13.8 mph - N/A   Mostly Cloudy
2:54 PM 57.0 °F - 33.1 °F 40% 30.04 in 10.0 mi WSW 13.8 mph - N/A   Mostly Cloudy
3:54 PM 55.0 °F - 34.0 °F 45% 30.04 in 10.0 mi SW 10.4 mph - N/A   Mostly Cloudy
4:54 PM 54.0 °F - 35.1 °F 49% 30.07 in 10.0 mi WSW 10.4 mph - N/A   Mostly Cloudy
5:54 PM 53.1 °F - 34.0 °F 48% 30.09 in 10.0 mi SW 10.4 mph - N/A   Mostly Cloudy
6:54 PM 50.0 °F - 34.0 °F 54% 30.10 in 10.0 mi SW 11.5 mph - N/A   Mostly Cloudy
7:54 PM 50.0 °F - 35.1 °F 57% 30.12 in 10.0 mi SW 11.5 mph - N/A   Mostly Cloudy
8:54 PM 48.9 °F - 35.1 °F 59% 30.12 in 10.0 mi SSW 9.2 mph - N/A   Mostly Cloudy
9:54 PM 48.9 °F - 34.0 °F 56% 30.12 in 10.0 mi SW 11.5 mph - N/A   Mostly Cloudy
10:54 PM 48.0 °F - 34.0 °F 58% 30.11 in 10.0 mi SW 10.4 mph - N/A   Overcast
11:54 PM 42.1 °F 38.4 °F 35.1 °F 76% 30.10 in 10.0 mi ESE 5.8 mph - N/A   Overcast